map of SWY home
SWY - Airport
Location
City:  Sitiawan, Perak, Malaysia
ICAO:WMBA
IATA:SWY

Details
Type:Airport (Aerodrome, Airfield)
Latitude:412'59"N (4.216389)
Longitude:10041'55"E (100.698611)
Elevation:25 ft (8 m)
Variation:0.19W (WMM2015v2 magnetic declination)
-0.01 annual change
Runways:1
Longest:1801 × 226 ft (549 × 69 m)

Time
Time Zone:UTC+8
Local Time:

Weather
METAR:WMBA 041400Z VRB02KT 9999 TS FEW017CB SCT030 BKN280 27/25 Q1013

Related Locations
Nearby:
Farthest:LOH: 12446 mi / 20029 km
Loja (La Toma) [Ciudad de Catamayo Airport (Camilo Ponce Enriquez Airport)], L, EC

Find:

   beyond  
but within

Other Information
Maps:
NOTAMs:
Links:
Sources:

  
  • flag of Malaysia
  • flag of Perak
  

Sectional Chart

Flight Planning
at skyvector.com

Satellite Image

Google Maps Satellite view

 

Copyright © 2004-2019 Karl L. Swartz. All rights reserved.
The Great Circle Mapper name and logo are trademarks of the Great Circle Mapper.
All other trademarks mentioned herein belong to their respective owners.
Please see credits for attibutions and further copyright information.

  Follow gcmap on Facebook Follow gcmap on Twitter GCmap on LinkedIn

hCard Microformat

Geo Microformat